Content
SEND FEEDBACK

Daily
Averages
Monthly
Summary
United States of America

ISABELA, PUERTO RICO


Home > North America > United States > Puerto Rico
Elevation: 12 meters     Latitude: 18 28N     Longitude: 067 02W

WEATHER
 
SELECT A DAY
Number of Records: 104,836;   Date Range: 6/30/96 - 9/20/14
 
SHARE

PRINT THIS DATA

[ ← Previous Day ]
WEATHER ALMANAC - 31 JANUARY, 2013
[ Next Day → ]
[ °F ]   °C
Weather ElementAverageHighLow
Temperature23.6 °C29 °C (11:50 am) (3:50 pm)
Dewpoint20.7 °C23 °C (11:50 am) (7:00 pm)
Humidity83.9 %100 % (5:50 am)70 % (10:50 am)
Barometer1017.9 hPa1019.6 hPa (9:50 am)1016.9 hPa (4:50 am)
Wind Speed19.3 km/h40.7 km/h (3:50 pm)
Weather ElementAverage
Visibility15.9 km
Wind DirectionESE (97.3 °)

Weather ElementTotal
Precipitation---
Heating Degree Days12.7 (Base 18.3)
Averaged from 22 records on 31 January, 2013
WEATHER CONDITIONS BREAKOUT
WIND DIRECTION BREAKOUT
WEATHER BY HOUR - 31 JANUARY, 2013
[ °F ]   °C
Local TimeTemperatureDewpointHumidityBarometerVisibilityWind DirectionWind SpeedGust SpeedPrecipitationEventsConditions
2:50 AM23 °C22 °C94 %1017.9 hPa16.1 kmESE (110°)11.1 km/hScattered Clouds
3:50 AM23 °C22 °C94 %1017.3 hPa11.3 kmESE (120°)9.3 km/hDrizzle
4:50 AM23 °C22 °C94 %1016.9 hPa16.1 kmEast (90°)11.1 km/hScattered Clouds
5:50 AM22 °C22 °C100 %1016.9 hPa16.1 kmEast (100°)9.3 km/hScattered Clouds
6:50 AM22 °C22 °C100 %1017.6 hPa16.1 kmESE (110°)11.1 km/hScattered Clouds
7:50 AM23 °C22 °C94 %1018.3 hPa16.1 kmEast (100°)14.8 km/hClear
8:50 AM25 °C22 °C83 %1019 hPa16.1 kmEast (100°)14.8 km/hScattered Clouds
9:50 AM27 °C22 °C74 %1019.6 hPa16.1 kmEast (100°)13 km/hClear
10:50 AM28 °C22 °C70 %1019.6 hPa16.1 kmEast (80°)25.9 km/hScattered Clouds
11:50 AM29 °C23 °C70 %1019.3 hPa16.1 kmEast (80°)25.9 km/hScattered Clouds
12:50 PM29 °C23 °C70 %1018.6 hPa16.1 kmENE (70°)33.3 km/hScattered Clouds
1:50 PM29 °C23 °C70 %1017.9 hPa16.1 kmEast (80°)31.5 km/hScattered Clouds
2:50 PM29 °C23 °C70 %1016.9 hPa16.1 kmEast (80°)31.5 km/hScattered Clouds
3:50 PM-17.8 °C-17.8 °C1016.9 hPa16.1 kmEast (80°)40.7 km/hScattered Clouds
4:50 PM27 °C23 °C79 %1016.9 hPa16.1 kmEast (90°)20.4 km/hScattered Clouds
5:50 PM26 °C23 °C83 %1016.9 hPa16.1 kmEast (100°)29.6 km/hScattered Clouds
6:50 PM26 °C23 °C83 %1017.6 hPa16.1 kmEast (100°)29.6 km/hScattered Clouds
7:50 PM26 °C23 °C83 %1017.9 hPa16.1 kmESE (110°)13 km/hScattered Clouds
8:50 PM26 °C23 °C83 %1017.9 hPa16.1 kmSE (130°)11.1 km/hScattered Clouds
9:50 PM25 °C23 °C89 %1018.6 hPa16.1 kmEast (100°)11.1 km/hScattered Clouds
10:50 PM24 °C22 °C89 %1018.6 hPa16.1 kmESE (110°)13 km/hClear
11:50 PM24 °C22 °C89 %1018.3 hPa16.1 kmEast (100°)14.8 km/hClear
Hourly data recorded from TJBQ, located 0 kilometers away from Isabela, Puerto Rico







STORIES FROM OUR PARTNERS